sat.trackr.live / text

‹ back to catalog

STARLINK-31449

NORAD 58966 · 2024-031B

PAYLOAD ACTIVE UNKNOWN

§ Identity

Operator
Country
US
Launch date
2024-02-15
Launch site
AFWTR
Launch vehicle
Mass (kg)
RCS (m²)

Purposes: comms

External: N2YO · Heavens-Above · Gunter

§ Orbital elements

Epoch: 2026-05-25T03:30:59.506848Z

Period
94.11 min
Inclination
53.1614°
Eccentricity
0.0001155
Mean motion
15.30193550 rev/d
Perigee alt
474.4 km
Apogee alt
476.0 km
Semi-major
6,853.4 km
B*
8.1415e-6
RAAN
301.2349°
Arg perigee
104.3692°
Mean anomaly
255.7437°
Rev number
12,824

§ Raw data

STARLINK-314491 58966U 24031B   26145.14652207 -.00000118  00000+0  81415-5 0  99932 58966  53.1614 301.2349 0001155 104.3692 255.7437 15.30193550128247

JSON: /api/v1/satellites/58966 · /tle

For live sub-satellite position, see the globe view (requires WebGL).

§ Visibility from observer

Set your observer location to see the next 7 days of passes ≥ 10°. The values pass through the URL so the page stays shareable.

No JS? Fill the form by hand. The geolocation button needs JavaScript.